Regional Weather Roundup
Issued by NWS Newport/Morehead, NC

Current Version | Previous Version | Graphics & Text | Print | Product List | Glossary Off
Versions: 1 2 3 4 5 6 7 8 9 10 11 12 13 14 15 16 17 18 19 20 21 22 23 24 25 26 27 28 29 30 31 32 33 34 35 36 37 38 39 40 41 42 43 44 45 46 47 48 49 50

000
ASUS42 KMHX 010222
RWRMHX
WEATHER ROUNDUP FOR EASTERN NORTH CAROLINA
NATIONAL WEATHER SERVICE NEWPORT/MOREHEAD CITY NC
900 PM EST SAT JAN 31 2015

NOTE: "FAIR" INDICATES FEW OR NO CLOUDS BELOW 12,000 FEET
WITH NO SIGNIFICANT WEATHER AND/OR OBSTRUCTIONS TO VISIBILITY

NCZ015>017-031-032-045>047-102-103-010300-
NORTH COAST

CITY           SKY/WX    TMP DP  RH WIND       PRES   REMARKS
EDENTON        CLEAR     29  20  71 CALM      30.32S
ELIZABETH CITY CLEAR     28  19  69 S5        30.32F
KITTY HAWK     CLEAR     33  22  62 SW3       30.31F
MANTEO         CLEAR     28  21  74 CALM      30.33F

$$

NCZ045>047-081-094-103-104-010300-
CENTRAL COAST

CITY           SKY/WX    TMP DP  RH WIND       PRES   REMARKS
FRISCO         CLEAR     27  21  78 CALM      30.34F
SWANQUARTER      N/A     30 N/A N/A S1        30.30S

$$

NCZ095-097-098-100-101-010300-
SOUTHERN COAST

CITY           SKY/WX    TMP DP  RH WIND       PRES   REMARKS
BEAUFORT       CLEAR     31  22  69 CALM      30.35F
CEDAR ISLAND     N/A     32 N/A N/A S3        30.39S
JACKSONVILLE   FAIR      29  23  78 CALM      30.34F
PINEY ISLAND     N/A    N/A N/A N/A MISG      30.34F
WILMINGTON     CLEAR     34  26  72 CALM      30.35S


$$

NCZ011>013-027>030-043-044-078>080-089-090>093-098-010300-
COASTAL PLAIN

CITY           SKY/WX    TMP DP  RH WIND       PRES   REMARKS
AHOSKIE        CLEAR     27  17  65 CALM      30.31F
CLINTON        CLEAR     31  22  68 CALM      30.34S
ELIZABETHTOWN  CLEAR     33  22  65 CALM      30.33S
GOLDSBORO      CLEAR     31  25  76 CALM      30.31S
GREENVILLE     CLEAR     30  21  69 CALM      30.33S
HAVELOCK       CLEAR     30  22  72 CALM      30.36S
KENANSVILLE    CLEAR     28  20  72 CALM      30.34S
KINSTON        CLEAR     28  21  74 CALM      30.33F
NEW BERN       CLEAR     30  19  63 CALM      30.35F
RICHLANDS      CLEAR     28  19  69 CALM      30.35S
ROCKY MOUNT    CLEAR     27  19  72 CALM      30.31F
WASHINGTON     CLEAR     29  18  61 CALM      30.33S
WHITEVILLE     CLEAR     38  21  50 SW5       30.35R

$$

AMZ130-135-150-152-154-156-158-170-250-252-270-ANZ085-086-088-633-658-670-010300-
MARINE OBSERVATIONS

STATION/POSITION TIME  TEMP    WIND        PRES    WAVE   SWELL
                       AIR SEA DIR/SP/G            HT/PER HT/PER
                 (UTC) (F)     (DEG/KT/KT) (MB)    (FT/S) (FT/S)
CHESAPEAKE LIGHT 0200   36     290/  5/  6 1026.7
64 E VA BEACH    0200   39 48  310/ 17/ 21 1025.5    8/ 8   5/ 8
DUCK             0200   36 40  230/  5/  5 1025.8
2 E DUCK         0200      41                N/A     4/ 8   2/11
10 NE DUCK       0200      43                N/A     4/ 8   2/11
OREGON INLET     0200   36 39  230/  4/  4 1027.0
13E OREGON INLT  0200      45                N/A     6/ 9   2/11
HATTERAS CG      0200   40 41  270/  6/  8 1027.6
DIAMOND BUOY     0200   44 72  300/ 16/ 19 1026.9    5/11   5/11
17 S OCRACOKE    NOT AVBL
CAPE LOOKOUT     0200   42     290/  2/  3 1027.3
BEAUFORT LAB     0200   38 45   CALM  /  1 1026.6
27 SE WRIGHTSVLE NOT AVBL
5 SE WRIGHTSVLE  0200   47 51  230/  8/  8 1027.7
225 S CAPE HAT   0055   55 70  340/ 14/ 19 1027.1   11/11  10/11
41 SE CHARLESTON 0200   52 69   20/  4/  8 1028.0    4/11   5/11

$$


USA.gov is the U.S. government's official web portal to all federal, state and local government web resources and services.